Bluffton, MN

6:29 PM CST on February 23, 2017 (GMT -0600)
Wadena Municipal

Weather History for KADC - April, 2014

Change the Weather History Date:

Wednesday, April 9, 2014

  Actual Average Record
Temperature  
Mean Temperature 52 °F -  
Max Temperature 69 °F 46 °F 80 °F (1988)
Min Temperature 35 °F 26 °F 3 °F (2007)
Degree Days  
Heating Degree Days 13    
Growing Degree Days 2 (Base 50)    
Moisture  
Dew Point 35 °F    
Average Humidity 56    
Maximum Humidity 75    
Minimum Humidity 38    
Precipitation  
Precipitation 0.00 in - - ()
Sea Level Pressure  
Sea Level Pressure 29.62 in    
Wind  
Wind Speed 10 mph (SSW)    
Max Wind Speed 26 mph    
Max Gust Speed 39 mph    
Visibility 10 miles    
Events      
Averages and records for this station are not official NWS values.
T = Trace of Precipitation, MM = Missing Value Source: NWS Daily Summary

Daily Weather History Graph

Daily Weather History Graph

Search for Another Location

Airport or City:

Trip Planner

Search our weather history database for the weather conditions in past years. The results will help you decide how hot, cold, wet, or windy it might be!

Date:

Astronomy

Apr. 09, 2014 Rise Set
Actual Time 6:45 AM CDT 8:00 PM CDT
Civil Twilight 6:13 AM CDT 8:31 PM CDT
Nautical Twilight 5:36 AM CDT 9:09 PM CDT
Astronomical Twilight 4:56 AM CDT 9:49 PM CDT
Moon 2:32 PM CDT (4/9) 3:52 AM CDT (4/9)
Length of Visible Light 14h 17m
Length of Day
13h 15m
Waxing Gibbous, 72% of the Moon is Illuminated
Apr 9
Waxing Gibbous
Apr 15
Full
Apr 22
Last Quarter
Apr 29
New
May 6
First Quarter

Hourly Weather History & Observations

Time (CDT) Temp. Windchill Dew Point Humidity Pressure Visibility Wind Dir Wind Speed Gust Speed Precip Events Conditions
12:15 AM 35.6 °F 30.7 °F 28.4 °F 75% 29.88 in 10.0 mi South 5.8 mph - N/A   Overcast
12:34 AM 35.6 °F 29.9 °F 28.4 °F 75% 29.88 in 10.0 mi South 6.9 mph - N/A   Overcast
12:53 AM 37.4 °F 32.1 °F 28.4 °F 70% 29.87 in 10.0 mi South 6.9 mph - N/A   Overcast
1:15 AM 35.6 °F 29.2 °F 28.4 °F 75% 29.86 in 10.0 mi South 8.1 mph - N/A   Scattered Clouds
1:35 AM 35.6 °F 29.2 °F 28.4 °F 75% 29.86 in 10.0 mi South 8.1 mph - N/A   Scattered Clouds
1:53 AM 37.4 °F 31.4 °F 28.4 °F 70% 29.85 in 10.0 mi South 8.1 mph - N/A   Mostly Cloudy
2:15 AM 37.4 °F 30.3 °F 28.4 °F 70% 29.85 in 10.0 mi South 10.4 mph - N/A   Overcast
2:34 AM 37.4 °F 30.8 °F 28.4 °F 70% 29.83 in 10.0 mi South 9.2 mph - N/A   Overcast
2:53 AM 39.2 °F 32.5 °F 28.4 °F 65% 29.82 in 10.0 mi South 10.4 mph - N/A   Overcast
3:15 AM 39.2 °F 31.2 °F 28.4 °F 65% 29.81 in 10.0 mi South 13.8 mph 19.6 mph N/A   Overcast
3:35 AM 39.2 °F 31.2 °F 28.4 °F 65% 29.80 in 10.0 mi South 13.8 mph 18.4 mph N/A   Overcast
3:53 AM 39.2 °F 31.2 °F 28.4 °F 65% 29.78 in 10.0 mi South 13.8 mph 20.7 mph N/A   Overcast
4:15 AM 37.4 °F 31.4 °F 28.4 °F 70% 29.78 in 10.0 mi South 8.1 mph - N/A   Scattered Clouds
4:35 AM 37.4 °F 30.8 °F 28.4 °F 70% 29.77 in 10.0 mi South 9.2 mph - N/A   Scattered Clouds
4:52 AM 37.4 °F 30.8 °F 28.4 °F 70% 29.76 in 10.0 mi South 9.2 mph - N/A   Scattered Clouds
5:15 AM 37.4 °F 30.8 °F 28.4 °F 70% 29.74 in 10.0 mi South 9.2 mph - N/A   Mostly Cloudy
5:35 AM 37.4 °F 32.1 °F 28.4 °F 70% 29.73 in 10.0 mi South 6.9 mph - N/A   Mostly Cloudy
5:52 AM 37.4 °F 32.1 °F 26.6 °F 65% 29.72 in 10.0 mi South 6.9 mph - N/A   Mostly Cloudy
6:14 AM 37.4 °F 30.8 °F 26.6 °F 65% 29.70 in 10.0 mi South 9.2 mph - N/A   Scattered Clouds
6:35 AM 37.4 °F 30.8 °F 26.6 °F 65% 29.70 in 10.0 mi South 9.2 mph 16.1 mph N/A   Scattered Clouds
6:53 AM 37.4 °F 32.1 °F 26.6 °F 65% 29.70 in 10.0 mi South 6.9 mph - N/A   Scattered Clouds
7:14 AM 37.4 °F 30.8 °F 26.6 °F 65% 29.69 in 10.0 mi South 9.2 mph - N/A   Scattered Clouds
7:35 AM 39.2 °F 32.5 °F 26.6 °F 61% 29.68 in 10.0 mi South 10.4 mph - N/A   Clear
7:53 AM 39.2 °F 32.0 °F 26.6 °F 61% 29.67 in 10.0 mi South 11.5 mph - N/A   Clear
8:15 AM 41.0 °F 33.9 °F 28.4 °F 61% 29.67 in 10.0 mi SSW 12.7 mph - N/A   Clear
8:35 AM 42.8 °F 35.4 °F 28.4 °F 57% 29.66 in 10.0 mi SSW 15.0 mph - N/A   Clear
8:53 AM 44.6 °F 38.1 °F 28.4 °F 53% 29.65 in 10.0 mi SSW 13.8 mph - N/A   Clear
9:14 AM 44.6 °F 38.8 °F 30.2 °F 57% 29.64 in 10.0 mi SSW 11.5 mph - N/A   Clear
9:35 AM 46.4 °F 41.9 °F 30.2 °F 53% 29.64 in 10.0 mi SSW 9.2 mph - N/A   Clear
9:53 AM 48.2 °F - 30.2 °F 50% 29.63 in 10.0 mi SSW 9.2 mph - N/A   Clear
10:15 AM 50.0 °F - 32.0 °F 50% 29.63 in 10.0 mi SSW 11.5 mph - N/A   Clear
10:52 AM 53.6 °F - 33.8 °F 47% 29.61 in 10.0 mi WSW 11.5 mph 17.3 mph N/A   Clear
11:15 AM 53.6 °F - 35.6 °F 51% 29.60 in 10.0 mi SW 10.4 mph - N/A   Clear
11:35 AM 55.4 °F - 35.6 °F 47% 29.59 in 10.0 mi SW 10.4 mph - N/A   Clear
11:53 AM 55.4 °F - 35.6 °F 47% 29.59 in 10.0 mi SW 11.5 mph - N/A   Clear
12:15 PM 55.4 °F - 35.6 °F 47% 29.58 in 10.0 mi SSW 12.7 mph 17.3 mph N/A   Clear
12:34 PM 55.4 °F - 37.4 °F 51% 29.58 in 10.0 mi SSW 12.7 mph - N/A   Clear
12:53 PM 57.2 °F - 37.4 °F 48% 29.57 in 10.0 mi SW 9.2 mph - N/A   Clear
1:15 PM 57.2 °F - 37.4 °F 48% 29.56 in 10.0 mi SSW 10.4 mph - N/A   Clear
1:35 PM 60.8 °F - 39.2 °F 45% 29.55 in 10.0 mi SSW 10.4 mph 16.1 mph N/A   Clear
1:53 PM 60.8 °F - 39.2 °F 45% 29.54 in 10.0 mi SSW 11.5 mph - N/A   Clear
2:14 PM 60.8 °F - 41.0 °F 48% 29.53 in 10.0 mi South 13.8 mph 17.3 mph N/A   Clear
2:35 PM 62.6 °F - 42.8 °F 48% 29.53 in 10.0 mi South 11.5 mph - N/A   Clear
2:53 PM 64.4 °F - 42.8 °F 45% 29.53 in 10.0 mi SSW 13.8 mph 17.3 mph N/A   Clear
3:15 PM 64.4 °F - 42.8 °F 45% 29.52 in 10.0 mi SSW 15.0 mph 19.6 mph N/A   Clear
3:35 PM 66.2 °F - 42.8 °F 43% 29.51 in 10.0 mi SSW 13.8 mph 19.6 mph N/A   Clear
3:52 PM 66.2 °F - 44.6 °F 46% 29.50 in 10.0 mi SSW 13.8 mph - N/A   Clear
4:14 PM 68.0 °F - 44.6 °F 43% 29.49 in 10.0 mi South 11.5 mph - N/A   Clear
4:34 PM 69.8 °F - 42.8 °F 38% 29.48 in 10.0 mi SW 15.0 mph - N/A   Clear
4:53 PM 69.8 °F - 44.6 °F 40% 29.47 in 10.0 mi SW 11.5 mph 19.6 mph N/A   Clear
5:15 PM 69.8 °F - 44.6 °F 40% 29.46 in 10.0 mi WSW 13.8 mph 19.6 mph N/A   Clear
5:35 PM 69.8 °F - 44.6 °F 40% 29.46 in 10.0 mi SW 12.7 mph - N/A   Clear
5:53 PM 69.8 °F - 44.6 °F 40% 29.45 in 10.0 mi SW 11.5 mph 17.3 mph N/A   Clear
6:15 PM 69.8 °F - 44.6 °F 40% 29.44 in 10.0 mi SW 8.1 mph - N/A   Clear
6:35 PM 69.8 °F - 42.8 °F 38% 29.43 in 10.0 mi SW 11.5 mph - N/A   Clear
6:52 PM 69.8 °F - 42.8 °F 38% 29.43 in 10.0 mi SW 9.2 mph - N/A   Clear
7:15 PM 66.2 °F - 42.8 °F 43% 29.42 in 10.0 mi SSW 9.2 mph - N/A   Clear
7:35 PM 66.2 °F - 42.8 °F 43% 29.41 in 10.0 mi SW 9.2 mph - N/A   Clear
7:52 PM 66.2 °F - 41.0 °F 40% 29.42 in 10.0 mi WSW 16.1 mph 39.1 mph N/A   Scattered Clouds
8:15 PM 64.4 °F - 41.0 °F 42% 29.43 in 10.0 mi WSW 15.0 mph 20.7 mph N/A   Scattered Clouds
8:35 PM 62.6 °F - 42.8 °F 48% 29.44 in 10.0 mi West 15.0 mph 28.8 mph N/A   Scattered Clouds
8:52 PM 62.6 °F - 44.6 °F 52% 29.46 in 10.0 mi WNW 23.0 mph 32.2 mph N/A   Scattered Clouds
9:15 PM 59.0 °F - 42.8 °F 55% 29.48 in 10.0 mi NW 19.6 mph 28.8 mph N/A   Clear
9:35 PM 55.4 °F - 41.0 °F 58% 29.50 in 10.0 mi NW 23.0 mph 32.2 mph N/A   Mostly Cloudy
9:52 PM 53.6 °F - 39.2 °F 58% 29.52 in 10.0 mi NW 25.3 mph 38.0 mph N/A   Mostly Cloudy
10:15 PM 53.6 °F - 37.4 °F 54% 29.54 in 10.0 mi NW 26.5 mph 35.7 mph N/A   Scattered Clouds
10:35 PM 50.0 °F - 37.4 °F 62% 29.57 in 10.0 mi NW 18.4 mph 32.2 mph N/A   Clear
10:53 PM 48.2 °F - 35.6 °F 62% 29.59 in 10.0 mi NW 18.4 mph 28.8 mph N/A   Clear
11:14 PM 48.2 °F - 37.4 °F 66% 29.61 in 10.0 mi NW 12.7 mph 21.9 mph N/A   Scattered Clouds
11:35 PM 46.4 °F 40.7 °F 35.6 °F 66% 29.61 in 10.0 mi NW 12.7 mph 21.9 mph N/A   Scattered Clouds
11:53 PM 46.4 °F 40.7 °F 35.6 °F 66% 29.61 in 10.0 mi NW 12.7 mph - N/A   Clear